Powrót do katalogu

ITOS 1

TIROS M

AktywnyPogodaSSO
NORAD 4320·PAYLOAD·🇺🇸 United States

Wystrzelony Jan 23, 1970 z Vandenberg Space Force Base

Loading…

Następne Przeloty (najbliższe 24 godziny)

TLE

ŚwieżeSource: Space-Track

Epoka: Sep 14, 2026, 14:01 UTC

1 04320U 70008A   26257.58452103 -.00000028  00000-0  88667-4 0  9994
2 04320 101.3646 287.1197 0028488 138.0443  16.3921 12.52124368785040

Śledź ITOS 1 w czasie rzeczywistym z AllMySat

Download on the App Store